Date String (YYYY-MM-DD hh:mm:ss) UTC,Instrument flags,Ambient pressure (hPa),Sample flow (lpm),Bypass flow (lpm),Sample temperature (°C),Ambient temperature (°C),ASC tube jacket temperature (°C),LED temperature (°C),Box temperature (°C),Sample RH (%),Span deviation,Mass concentration (μg/m³),Mass concentration (μg/m³),Mass concentration (μg/m³)
DateTimeUTC,F1_M11,P_M11,Q1_M11,Q2_M11,T1_M11,T2_M11,T3_M11,T4_M11,T5_M11,U1_M11,ZSPAN_M11,X0_M11,X2_M11,X1_M11
2022-07-13 14:00:00,,0829.2,5.01,0.00,30.2,28.9,00.0,38.9,32.0,21.6,0000.0,0014.71,0006.09,0004.86
2022-07-13 14:01:00,,0829.2,5.00,0.00,30.1,28.1,00.0,38.8,31.9,22.3,0000.0,0014.93,0006.12,0004.87
2022-07-13 14:02:00,,0829.2,5.00,0.00,30.1,27.7,00.0,38.8,31.8,22.5,0000.0,0015.55,0006.09,0004.88
2022-07-13 14:03:00,,0829.2,4.99,0.00,30.0,27.7,00.0,38.8,31.8,22.3,0000.0,0016.32,0006.10,0004.88
2022-07-13 14:04:00,,0829.2,5.00,0.00,30.0,27.8,00.0,38.7,31.7,22.4,0000.0,0015.77,0006.11,0004.89
2022-07-13 14:05:00,,0829.2,5.00,0.00,29.9,27.9,00.0,38.7,31.7,23.3,0000.0,0015.93,0006.14,0004.89
2022-07-13 14:06:00,,0829.2,5.00,0.00,29.9,28.0,00.0,38.7,31.7,22.2,0000.0,0015.80,0006.19,0004.89
2022-07-13 14:07:00,,0829.2,5.01,0.00,29.9,28.2,00.0,38.7,31.7,22.0,0000.0,0015.22,0006.23,0004.91
2022-07-13 14:08:00,,0829.2,4.99,0.00,29.9,28.3,00.0,38.7,31.7,21.9,0000.0,0015.26,0006.25,0004.94
2022-07-13 14:09:00,,0829.2,5.00,0.00,29.9,28.4,00.0,38.7,31.7,21.8,0000.0,0016.06,0006.24,0004.95
2022-07-13 14:10:00,,0829.2,5.00,0.00,29.9,28.5,00.0,38.8,31.8,22.4,0000.0,0017.07,0006.33,0004.97
2022-07-13 14:11:00,,0829.2,4.99,0.00,30.0,28.6,00.0,38.8,31.8,22.9,0000.0,0017.06,0006.41,0004.99
2022-07-13 14:12:00,,0829.2,5.01,0.00,30.0,28.7,00.0,38.8,31.9,22.8,0000.0,0017.17,0006.45,0005.02
2022-07-13 14:13:00,,0829.2,5.00,0.00,30.0,28.8,00.0,38.8,31.9,22.7,0000.0,0016.49,0006.46,0005.03
2022-07-13 14:14:00,,0829.2,5.00,0.00,30.0,28.9,00.0,38.8,31.9,22.4,0000.0,0015.72,0006.44,0005.04
2022-07-13 14:15:00,,0829.2,5.00,0.00,30.0,28.9,00.0,38.8,31.9,22.3,0000.0,0015.89,0006.46,0005.06
2022-07-13 14:16:00,,0829.2,5.00,0.00,30.1,29.0,00.0,38.8,32.0,22.1,0000.0,0015.67,0006.49,0005.09
2022-07-13 14:17:00,,0829.2,5.00,0.00,30.1,29.0,00.0,38.8,32.0,21.8,0000.0,0015.74,0006.51,0005.12
2022-07-13 14:18:00,,0829.2,5.01,0.00,30.1,28.5,00.0,38.8,32.0,22.0,0000.0,0015.64,0006.46,0005.13
2022-07-13 14:19:00,,0829.2,5.00,0.00,30.1,27.8,00.0,38.7,31.8,22.6,0000.0,0015.49,0006.43,0005.13
2022-07-13 14:20:00,,0829.2,4.99,0.00,30.0,27.7,00.0,38.7,31.8,23.0,0000.0,0014.53,0006.37,0005.13
2022-07-13 14:21:00,,0829.2,5.00,0.00,30.0,27.7,00.0,38.7,31.7,23.2,0000.0,0013.67,0006.32,0005.13
2022-07-13 14:22:00,,0829.4,4.99,0.00,29.9,27.8,00.0,38.7,31.6,23.3,0000.0,0014.82,0006.27,0005.13
2022-07-13 14:23:00,,0829.4,5.00,0.00,29.9,28.0,00.0,38.7,31.7,23.4,0000.0,0015.52,0006.24,0005.13
2022-07-13 14:24:00,,0829.4,5.01,0.00,29.9,28.1,00.0,38.7,31.6,23.8,0000.0,0015.10,0006.29,0005.13
2022-07-13 14:25:00,,0829.2,4.99,0.00,29.9,28.2,00.0,38.7,31.7,24.2,0000.0,0015.91,0006.33,0005.12
2022-07-13 14:26:00,,0829.3,5.00,0.00,29.9,28.4,00.0,38.7,31.7,24.2,0000.0,0015.31,0006.34,0005.13
2022-07-13 14:27:00,,0829.2,5.01,0.00,29.9,28.5,00.0,38.7,31.7,23.9,0000.0,0015.89,0006.32,0005.12
2022-07-13 14:28:00,,0829.3,5.00,0.00,29.9,28.6,00.0,38.7,31.8,24.5,0000.0,0015.91,0006.30,0005.12
2022-07-13 14:29:00,,0829.3,4.99,0.00,29.9,28.7,00.0,38.7,31.8,22.7,0000.0,0016.06,0006.32,0005.12
2022-07-13 14:30:00,,0829.3,5.00,0.00,30.0,28.8,00.0,38.7,31.9,22.9,0000.0,0016.16,0006.36,0005.10
2022-07-13 14:31:00,,0829.3,5.01,0.00,30.0,28.9,00.0,38.7,31.9,23.7,0000.0,0016.07,0006.37,0005.10
2022-07-13 14:32:00,,0829.3,5.00,0.00,30.0,28.9,00.0,38.8,31.9,24.0,0000.0,0016.29,0006.41,0005.10
2022-07-13 14:33:00,,0829.3,5.01,0.00,30.1,28.8,00.0,38.8,32.0,23.7,0000.0,0015.68,0006.45,0005.11
2022-07-13 14:34:00,,0829.4,5.00,0.00,30.0,28.1,00.0,38.7,31.8,23.9,0000.0,0015.76,0006.42,0005.11
2022-07-13 14:35:00,,0829.3,5.00,0.00,30.0,27.7,00.0,38.6,31.7,23.6,0000.0,0015.61,0006.39,0005.11
2022-07-13 14:36:00,,0829.3,5.00,0.00,29.9,27.7,00.0,38.6,31.7,23.8,0000.0,0014.87,0006.35,0005.13
2022-07-13 14:37:00,,0829.2,4.99,0.00,29.9,27.8,00.0,38.6,31.6,23.8,0000.0,0015.39,0006.38,0005.13
2022-07-13 14:38:00,,0829.4,5.00,0.00,29.8,27.9,00.0,38.6,31.6,23.6,0000.0,0015.51,0006.34,0005.12
2022-07-13 14:39:00,,0829.4,5.01,0.00,29.8,28.0,00.0,38.6,31.6,23.8,0000.0,0015.13,0006.33,0005.11
2022-07-13 14:40:00,,0829.3,5.00,0.00,29.8,28.2,00.0,38.6,31.7,23.6,0000.0,0014.98,0006.30,0005.09
2022-07-13 14:41:00,,0829.5,4.99,0.00,29.8,28.3,00.0,38.6,31.7,23.9,0000.0,0014.98,0006.30,0005.10
2022-07-13 14:42:00,,0829.3,5.01,0.00,29.9,28.4,00.0,38.7,31.7,24.1,0000.0,0015.14,0006.36,0005.11
2022-07-13 14:43:00,,0829.3,4.99,0.00,29.9,28.5,00.0,38.7,31.8,24.3,0000.0,0015.38,0006.36,0005.10
2022-07-13 14:44:00,,0829.3,5.02,0.00,29.9,28.6,00.0,38.7,31.8,23.8,0000.0,0014.79,0006.30,0005.10
2022-07-13 14:45:00,,0829.4,5.00,0.00,29.9,28.7,00.0,38.7,31.8,23.8,0000.0,0014.08,0006.35,0005.10
2022-07-13 14:46:00,,0829.4,5.00,0.00,29.9,28.8,00.0,38.7,31.9,23.6,0000.0,0013.77,0006.34,0005.10
2022-07-13 14:47:00,,0829.4,5.01,0.00,30.0,28.9,00.0,38.7,31.9,23.5,0000.0,0014.19,0006.38,0005.11
2022-07-13 14:48:00,,0829.4,4.99,0.00,30.0,28.7,00.0,38.7,31.9,23.7,0000.0,0014.85,0006.39,0005.12
2022-07-13 14:49:00,,0829.4,5.00,0.00,30.0,27.9,00.0,38.6,31.8,24.0,0000.0,0015.01,0006.46,0005.13
2022-07-13 14:50:00,,0829.4,5.01,0.00,29.9,27.5,00.0,38.6,31.7,24.4,0000.0,0014.87,0006.49,0005.15
2022-07-13 14:51:00,,0829.4,5.01,0.00,29.9,27.6,00.0,38.6,31.6,24.9,0000.0,0014.96,0006.48,0005.16
2022-07-13 14:52:00,,0829.3,5.00,0.00,29.8,27.7,00.0,38.6,31.5,24.4,0000.0,0015.84,0006.42,0005.16
2022-07-13 14:53:00,,0829.3,4.98,0.00,29.8,27.8,00.0,38.6,31.5,24.4,0000.0,0016.33,0006.39,0005.16
2022-07-13 14:54:00,,0829.3,5.01,0.00,29.8,28.0,00.0,38.6,31.6,24.8,0000.0,0016.26,0006.38,0005.16
2022-07-13 14:55:00,,0829.3,5.01,0.00,29.8,28.1,00.0,38.6,31.6,25.3,0000.0,0016.37,0006.41,0005.17
2022-07-13 14:56:00,,0829.3,4.99,0.00,29.8,28.3,00.0,38.6,31.6,24.9,0000.0,0016.08,0006.38,0005.18
2022-07-13 14:57:00,,0829.3,4.99,0.00,29.8,28.4,00.0,38.6,31.7,24.6,0000.0,0017.49,0006.41,0005.18
2022-07-13 14:58:00,,0829.4,5.00,0.00,29.8,28.5,00.0,38.6,31.7,25.0,0000.0,0017.66,0006.41,0005.19
2022-07-13 14:59:00,,0829.5,5.01,0.00,29.9,28.6,00.0,38.6,31.8,25.0,0000.0,0017.36,0006.41,0005.20
